User: anonymous   Login
Location: Lombard
(41.8800°N, 88.0080°W)
Time: 16:33:48
(UTC-06:00)
Language:

CAS-4A - Orbit

View from above orbital plane
View from above orbital plane
View from above satellite
View from above satellite

Ground track
Ground track

The orbit data is extracted from the following two-line orbital elements,

1 42761U 17034D   22342.53988728  .00004895  00000-0  28053-3 0  9995
2 42761  43.0162  90.8450 0011786 310.4922 113.9095 15.13511638302724
Epoch (UTC): 08 December 2022 12:57:26
Eccentricity: 0.0011786
inclination: 43.0162°
perigee height: 517 km
apogee height: 533 km
right ascension of ascending node: 90.8450°
argument of perigee: 310.4922°
revolutions per day: 15.13511638
mean anomaly at epoch: 113.9095°
orbit number at epoch: 30272

The dashed part of the orbit path shows where the satellite is in the earth's shadow,  

DLR